Weather observations for the past three days for
Flippin, Marion County Regional Airport
Imperial (Metric)
Date Time (cdt) Wind (mph) Vis. (mi.) Weather Sky Cond. Temperature (ºF) Relative Humidity Wind Chill (°F) Heat Index (°F) Pressure Precipitation (in)
Air Dwpt 6 hour altimeter (in) sea level (mb) 1 hr 3 hr 6 hr
Max. Min.
16 17:56 Calm 10.00 Partly Cloudy SCT050 91.9 72 52% 100 29.88 1011.2
16 16:56 Calm 10.00 Fair CLR 93 71.1 49% 100 29.88 1010.8
16 15:56 Calm 10.00 Partly Cloudy SCT085 91.9 70 49% 98 29.88 1011.1
16 14:56 Calm 10.00 Fair CLR 91 71.1 52% 98 29.91 1011.9
16 13:56 Calm 10.00 A Few Clouds FEW060 91.9 71.1 51% 99 29.94 1012.9
16 12:56 Calm 10.00 A Few Clouds FEW055 91.9 70 93 71.1 49% 98 29.96 1013.6
16 11:56 Calm 10.00 A Few Clouds FEW040 90 71.1 54% 96 29.98 1014.3
16 10:56 Calm 10.00 Fair CLR 88 71.1 57% 94 29.98 1014.3
16 09:56 Calm 10.00 Fair CLR 86 72 63% 92 29.97 1013.9
16 08:56 Calm 10.00 Fair CLR 81 72 74% 85 29.97 1014.1
16 07:56 Calm 10.00 Fair CLR 75.9 70 82% 77 29.96 1013.7
16 06:56 Calm 10.00 Fair CLR 71.1 69.1 78.1 69.1 94% 29.95 1013.5
16 05:56 Calm 10.00 Fair CLR 70 68 93% 29.94 1013.1
16 04:56 Calm 10.00 Fair CLR 70 68 93% 29.93 1012.7
16 03:56 Calm 10.00 Fair CLR 71.1 69.1 94% 29.93 1012.5
16 02:56 Calm 10.00 Fair CLR 73.9 69.1 85% 29.93 1012.5
16 01:56 Calm 10.00 Fair CLR 73.9 69.1 85% 29.93 1012.8
16 00:56 Calm 10.00 Fair CLR 78.1 70 88 78.1 76% 80 29.93 1012.6
15 23:56 Calm 10.00 Fair CLR 80.1 70 71% 83 29.93 1012.6
15 22:56 Calm 10.00 Fair CLR 81 71.1 72% 85 29.93 1012.5
15 21:56 Calm 10.00 Fair CLR 82.9 73 72% 89 29.92 1012.4
15 20:56 Calm 10.00 Thunderstorm in Vicinity SCT045 84 73.9 72% 91 29.91 1012.0
15 19:56 Calm 10.00 Mostly Cloudy SCT047 BKN055 86 75 70% 95 29.91 1012.0
15 18:56 Calm 10.00 Partly Cloudy FEW040 SCT060 88 75 95 88 66% 98 29.91 1011.9
15 17:56 Calm 10.00 Partly Cloudy SCT070 91 75 59% 102 29.91 1012.0
15 16:56 Calm 10.00 A Few Clouds FEW048 91.9 73.9 56% 102 29.92 1012.2
15 15:56 Calm 10.00 A Few Clouds FEW047 93.9 73 51% 103 29.94 1012.8
15 14:56 Calm 10.00 Partly Cloudy FEW043 SCT050 93 73.9 54% 103 29.94 1013.1
15 13:56 Calm 10.00 Mostly Cloudy SCT041 BKN060 91.9 73.9 56% 102 29.96 1013.7
15 12:56 Calm 10.00 Fair CLR 91 73.9 91 73 57% 101 29.98 1014.4
15 11:56 Calm 10.00 Fair CLR 89.1 73.9 61% 98 30 1015.1
15 10:56 Calm 10.00 Fair CLR 86 72 63% 92 30.01 1015.5
15 09:56 Calm 10.00 Fair CLR 82.9 70 65% 87 30.03 1015.9
15 08:56 Calm 10.00 Fair CLR 80.1 69.1 69% 83 30.04 1016.4
15 07:56 Calm 10.00 Fair CLR 77 72 85% 78 30.04 1016.2
15 06:56 Calm 10.00 Mostly Cloudy BKN041 73 72 75.9 71.1 96% 30.03 1016.0
15 05:56 Calm 10.00 Overcast OVC043 71.1 70 96% 30.02 1015.7
15 04:56 Calm 8.00 A Few Clouds FEW043 71.1 71.1 100% 30 1015.0
15 03:56 Calm 10.00 Fair CLR 72 71.1 97% 29.99 1014.7
15 02:56 Calm 6.00 Fog/Mist CLR 72 71.1 97% 29.99 1014.8
15 01:56 Calm 10.00 Fair CLR 75 72 90% 74 30 1015.1
15 00:56 Calm 10.00 Fair CLR 75.9 73 90 75 91% 76 30.01 1015.2
14 23:56 Calm 10.00 Fair CLR 75.9 72 88% 76 30.01 1015.5
14 22:56 Calm 10.00 Fair CLR 78.1 73 85% 81 30 1015.3
14 21:56 Calm 10.00 Fair CLR 80.1 73 79% 84 29.99 1014.8
14 20:56 Calm 10.00 Fair CLR 82.9 73 72% 89 29.98 1014.4
14 19:56 Calm 10.00 Fair CLR 88 72 59% 95 29.97 1014.1
14 18:56 Calm 10.00 Fair CLR 90 69.1 91.9 89.1 50% 95 29.97 1013.9
14 17:56 Calm 10.00 Fair CLR 91 66.9 45% 94 29.97 1014.0
14 16:56 Calm 10.00 Fair CLR 91.9 68 46% 96 29.99 1014.6
14 15:56 Calm 10.00 Fair CLR 91.9 66.9 44% 95 30 1014.9
14 14:56 Calm 7.00 Fair CLR 91 70 50% 97 30.01 1015.5
14 13:56 Calm 10.00 Fair CLR 90 69.1 50% 95 30.02 1015.7
14 12:56 Calm 10.00 Fair CLR 89.1 68 89.1 73.9 50% 93 30.03 1016.1
14 11:56 Calm 10.00 Fair CLR 84.9 70 61% 89 30.03 1016.3
14 10:56 Calm 10.00 Fair CLR 84 68 59% 87 30.03 1016.3
14 09:56 Calm 10.00 Fair CLR 82.9 69.1 63% 87 29.99 1014.9
14 08:56 Calm 10.00 Fair CLR 75.9 66.9 74% 77 29.97 1013.9
14 07:56 Calm 10.00 Fair CLR 75 66 74% 76 29.96 1013.6
14 06:56 Calm 10.00 Fair CLR 73.9 64.9 75.9 70 74% 29.93 1012.5
14 05:56 Calm 10.00 Fair CLR 75 63 66% 77 29.98 1014.4
14 04:56 Calm 10.00 Partly Cloudy SCT045 75 68 79% 76 30.05 1016.6
14 03:56 Calm 10.00 Fair CLR 71.1 68 90% 30.03 1016.2
14 02:56 Calm 10.00 Fair CLR 71.1 66.9 87% 30 1015.2
14 01:56 Calm 10.00 Fair CLR 72 66.9 84% 30.01 1015.6
14 00:56 Calm 10.00 Fair CLR 73 68 90 72 84% 30 1015.2
13 23:56 Calm 10.00 Fair CLR 73.9 66.9 79% 29.98 1014.3
13 22:56 Calm 10.00 Fair CLR 75.9 66.9 74% 77 29.95 1013.5
13 21:56 Calm 10.00 Fair CLR 78.1 68 71% 80 29.92 1012.2
13 20:56 Calm 10.00 Fair CLR 82 68 63% 85 29.91 1011.9
13 19:56 Calm 10.00 Fair CLR 86 68 55% 89 29.9 1011.8
13 18:56 Calm 10.00 Fair CLR 90 68 93 88 48% 94 29.92 1012.5
Date Time (cdt) Wind (mph) Vis. (mi.) Weather Sky Cond. Air Dwpt Max. Min. Relative Humidity Wind Chill (°F) Heat Index (°F) altimeter (in) sea level (mb) 1 hr 3 hr 6 hr
6 hour
Temperature (ºF) Pressure Precipitation (in)